When you browse on this site, cookies collect data to enhance your experience and personalize the content and advertising you see.
Visit our Privacy Policy to learn more. By continuing to use the site, you agree to this use of cookies and data.
  • en Suisse
  • Liste des pays
  • À 7 jours
  • Température de l'eau
  • Carte satellitaire
  • Carte météo
  • Widgets météo
  • user-avatar
    Se connecter

    Météo par heure à Straubing

    Ce jour, 16 Juillet, Mardi

    Heure Température Précipitation Vent Pression Humidité
    00:00 +13°C° 0 mm 0 m/s 734 mmHg 88%
    01:00 +13°C° 0 mm 0 m/s 734 mmHg 90%
    02:00 +12°C° 0 mm 0 m/s 734 mmHg 91%
    03:00 +13°C° 0 mm 1 m/s 734 mmHg 92%
    04:00 +12°C° 0 mm 1 m/s 734 mmHg 93%
    05:00 +13°C° 0 mm 1 m/s 734 mmHg 91%
    06:00 +14°C° 0 mm 1 m/s 734 mmHg 90%
    07:00 +15°C° 0 mm 1 m/s 734 mmHg 89%
    08:00 +17°C° 0 mm 2 m/s 734 mmHg 80%
    09:00 +19°C° 0 mm 2 m/s 734 mmHg 72%
    10:00 +21°C° 0 mm 3 m/s 734 mmHg 63%
    11:00 +22°C° 0 mm 3 m/s 734 mmHg 59%
    12:00 +24°C° 0 mm 3 m/s 734 mmHg 55%
    13:00 +25°C° 0 mm 4 m/s 734 mmHg 51%
    14:00 +25°C° 0 mm 3 m/s 734 mmHg 50%
    15:00 +25°C° 0 mm 3 m/s 734 mmHg 49%
    16:00 +25°C° 0 mm 3 m/s 734 mmHg 49%
    17:00 +24°C° 0 mm 3 m/s 733 mmHg 56%
    18:00 +23°C° 0 mm 2 m/s 733 mmHg 62%
    19:00 +21°C° 0 mm 2 m/s 733 mmHg 69%
    20:00 +19°C° 0 mm 2 m/s 734 mmHg 74%
    21:00 +17°C° 0 mm 2 m/s 734 mmHg 79%
    22:00 +16°C° 0 mm 1 m/s 734 mmHg 83%
    23:00 +15°C° 0 mm 1 m/s 734 mmHg 86%

    Demain, 17 Juillet, Mercredi

    Heure Température Précipitation Vent Pression Humidité
    00:00 +14°C° 0 mm 1 m/s 734 mmHg 88%
    01:00 +14°C° 0 mm 1 m/s 734 mmHg 91%
    02:00 +13°C° 0 mm 1 m/s 734 mmHg 92%
    03:00 +12°C° 0 mm 0 m/s 733 mmHg 92%
    04:00 +12°C° 0 mm 0 m/s 733 mmHg 92%
    05:00 +13°C° 0 mm 0 m/s 733 mmHg 88%
    06:00 +14°C° 0 mm 0 m/s 733 mmHg 85%
    07:00 +15°C° 0 mm 0 m/s 733 mmHg 81%
    08:00 +18°C° 0 mm 0 m/s 733 mmHg 74%
    09:00 +20°C° 0 mm 0 m/s 733 mmHg 67%
    10:00 +24°C° 0 mm 1 m/s 733 mmHg 61%
    11:00 +25°C° 0 mm 1 m/s 733 mmHg 57%
    12:00 +26°C° 0 mm 1 m/s 732 mmHg 53%
    13:00 +27°C° 0 mm 1 m/s 732 mmHg 49%
    14:00 +26°C° 0 mm 1 m/s 732 mmHg 50%
    15:00 +26°C° 0 mm 1 m/s 731 mmHg 52%
    16:00 +26°C° 0 mm 1 m/s 731 mmHg 53%
    17:00 +25°C° 0 mm 1 m/s 731 mmHg 59%
    18:00 +24°C° 0 mm 1 m/s 731 mmHg 65%
    19:00 +23°C° 0 mm 1 m/s 731 mmHg 71%
    20:00 +21°C° 0.1 mm 1 m/s 731 mmHg 75%
    21:00 +19°C° 0.1 mm 1 m/s 731 mmHg 80%
    22:00 +18°C° 0.1 mm 1 m/s 732 mmHg 85%
    23:00 +16°C° 0 mm 1 m/s 731 mmHg 87%

    Après-demain, 18 Juillet, Jeudi

    Heure Température Précipitation Vent Pression Humidité
    00:00 +15°C° 0 mm 0 m/s 731 mmHg 88%
    01:00 +14°C° 0 mm 0 m/s 731 mmHg 90%
    02:00 +14°C° 0 mm 0 m/s 731 mmHg 90%
    03:00 +13°C° 0 mm 0 m/s 731 mmHg 91%
    04:00 +13°C° 0 mm 0 m/s 731 mmHg 92%
    05:00 +14°C° 0 mm 0 m/s 731 mmHg 89%
    06:00 +15°C° 0 mm 0 m/s 731 mmHg 87%
    07:00 +17°C° 0 mm 0 m/s 731 mmHg 84%
    08:00 +19°C° 0.1 mm 0 m/s 731 mmHg 78%
    09:00 +20°C° 0.1 mm 0 m/s 731 mmHg 72%
    10:00 +24°C° 0.1 mm 1 m/s 731 mmHg 66%
    11:00 +25°C° 0 mm 1 m/s 731 mmHg 59%
    12:00 +26°C° 0 mm 1 m/s 731 mmHg 53%
    13:00 +27°C° 0 mm 1 m/s 730 mmHg 47%
    14:00 +26°C° 0 mm 1 m/s 730 mmHg 48%
    15:00 +26°C° 0 mm 1 m/s 730 mmHg 49%
    16:00 +26°C° 0 mm 2 m/s 730 mmHg 50%
    17:00 +25°C° 0.1 mm 1 m/s 730 mmHg 57%
    18:00 +24°C° 0.1 mm 1 m/s 730 mmHg 63%
    19:00 +23°C° 0.1 mm 1 m/s 730 mmHg 70%
    20:00 +21°C° 1.1 mm 1 m/s 731 mmHg 76%
    21:00 +20°C° 1.1 mm 1 m/s 731 mmHg 83%
    22:00 +18°C° 1.1 mm 1 m/s 731 mmHg 90%
    23:00 +18°C° 0.3 mm 1 m/s 731 mmHg 90%

    19 Juillet, Vendredi

    Heure Température Précipitation Vent Pression Humidité
    00:00 +16°C° 0.3 mm 1 m/s 731 mmHg 91%
    01:00 +16°C° 0.3 mm 1 m/s 731 mmHg 91%
    02:00 +15°C° 0 mm 1 m/s 731 mmHg 92%
    03:00 +15°C° 0 mm 1 m/s 731 mmHg 93%
    04:00 +15°C° 0 mm 1 m/s 731 mmHg 94%
    05:00 +15°C° 0.1 mm 1 m/s 731 mmHg 93%
    06:00 +16°C° 0.1 mm 1 m/s 732 mmHg 91%
    07:00 +18°C° 0.1 mm 1 m/s 732 mmHg 90%
    08:00 +18°C° 0.3 mm 2 m/s 732 mmHg 86%
    09:00 +19°C° 0.3 mm 2 m/s 732 mmHg 82%
    10:00 +21°C° 0.3 mm 2 m/s 732 mmHg 78%
    11:00 +23°C° 0.5 mm 2 m/s 732 mmHg 73%
    12:00 +24°C° 0.5 mm 2 m/s 732 mmHg 68%
    13:00 +24°C° 0.5 mm 3 m/s 732 mmHg 63%
    14:00 +24°C° 0.8 mm 2 m/s 732 mmHg 65%
    15:00 +24°C° 0.8 mm 2 m/s 732 mmHg 68%
    16:00 +24°C° 0.8 mm 2 m/s 733 mmHg 70%
    17:00 +23°C° 0.4 mm 2 m/s 733 mmHg 74%
    18:00 +23°C° 0.4 mm 1 m/s 733 mmHg 78%
    19:00 +22°C° 0.4 mm 1 m/s 733 mmHg 81%
    20:00 +21°C° 0.2 mm 1 m/s 733 mmHg 84%
    21:00 +19°C° 0.2 mm 1 m/s 734 mmHg 86%
    22:00 +18°C° 0.2 mm 1 m/s 734 mmHg 89%
    23:00 +16°C° 0 mm 1 m/s 734 mmHg 89%

    20 Juillet, Samedi

    Heure Température Précipitation Vent Pression Humidité
    00:00 +15°C° 0 mm 0 m/s 734 mmHg 90%
    01:00 +14°C° 0 mm 0 m/s 734 mmHg 90%
    02:00 +14°C° 0 mm 0 m/s 734 mmHg 90%
    03:00 +14°C° 0 mm 0 m/s 734 mmHg 91%
    04:00 +13°C° 0 mm 0 m/s 734 mmHg 92%
    05:00 +14°C° 0 mm 0 m/s 734 mmHg 90%
    06:00 +18°C° 0 mm 1 m/s 734 mmHg 89%
    07:00 +19°C° 0 mm 1 m/s 734 mmHg 87%
    08:00 +21°C° 0 mm 1 m/s 734 mmHg 80%
    09:00 +22°C° 0 mm 1 m/s 734 mmHg 73%
    10:00 +24°C° 0 mm 1 m/s 735 mmHg 66%
    11:00 +25°C° 0 mm 1 m/s 734 mmHg 62%
    12:00 +26°C° 0 mm 1 m/s 734 mmHg 58%
    13:00 +27°C° 0 mm 1 m/s 734 mmHg 54%
    14:00 +28°C° 0 mm 1 m/s 734 mmHg 53%
    15:00 +28°C° 0 mm 1 m/s 734 mmHg 52%
    16:00 +28°C° 0 mm 1 m/s 734 mmHg 51%
    17:00 +27°C° 0 mm 1 m/s 734 mmHg 57%
    18:00 +25°C° 0 mm 1 m/s 734 mmHg 63%
    19:00 +22°C° 0 mm 0 m/s 734 mmHg 70%
    20:00 +21°C° 0.1 mm 0 m/s 734 mmHg 73%
    21:00 +19°C° 0.1 mm 0 m/s 735 mmHg 77%
    22:00 +18°C° 0.1 mm 0 m/s 735 mmHg 81%
    23:00 +20°C° 0.1 mm 1 m/s 736 mmHg 83%

    21 Juillet, Dimanche

    Heure Température Précipitation Vent Pression Humidité
    00:00 +19°C° 0.1 mm 1 m/s 736 mmHg 85%
    01:00 +19°C° 0.1 mm 1 m/s 736 mmHg 87%
    02:00 +19°C° 0 mm 1 m/s 736 mmHg 89%
    03:00 +18°C° 0 mm 1 m/s 736 mmHg 91%
    04:00 +18°C° 0 mm 1 m/s 736 mmHg 93%
    05:00 +19°C° 0 mm 1 m/s 736 mmHg 91%
    06:00 +18°C° 0 mm 2 m/s 737 mmHg 90%
    07:00 +19°C° 0 mm 2 m/s 737 mmHg 88%
    08:00 +21°C° 0 mm 2 m/s 737 mmHg 81%
    09:00 +23°C° 0 mm 2 m/s 737 mmHg 74%
    10:00 +25°C° 0 mm 1 m/s 737 mmHg 67%
    11:00 +26°C° 0.1 mm 1 m/s 737 mmHg 64%
    12:00 +27°C° 0.1 mm 1 m/s 737 mmHg 61%
    13:00 +28°C° 0.1 mm 1 m/s 737 mmHg 57%
    14:00 +29°C° 0.1 mm 1 m/s 737 mmHg 56%
    15:00 +29°C° 0.1 mm 1 m/s 737 mmHg 54%
    16:00 +29°C° 0.1 mm 1 m/s 737 mmHg 53%
    17:00 +28°C° 0.1 mm 1 m/s 737 mmHg 60%
    18:00 +27°C° 0.1 mm 1 m/s 737 mmHg 67%
    19:00 +24°C° 0.1 mm 0 m/s 737 mmHg 73%
    20:00 +22°C° 0 mm 0 m/s 737 mmHg 77%
    21:00 +21°C° 0 mm 0 m/s 737 mmHg 80%
    22:00 +19°C° 0 mm 0 m/s 737 mmHg 83%
    23:00 +19°C° 0 mm 0 m/s 737 mmHg 85%
    Voir plus